Location: Winnipauk Village
(41.1295°N, 73.4171°W)
Time: 00:08:56
(UTC+00:00)

Envisat - Visible Passes

Search period start: 25 July 2021 00:00
Search period end: 04 August 2021 00:00
Orbit: 764 x 766 km, 98.1° (Epoch: 24 July)

Date Brightness Start Highest point End Pass type
(mag) Time Alt. Az. Time Alt. Az. Time Alt. Az.
25 Jul 5.6 09:08:50 10° NE 09:12:28 19° E 09:16:05 10° SE visible
28 Jul 5.8 08:57:56 10° NE 09:00:52 15° E 09:03:46 10° SE visible
31 Jul 6.0 08:47:29 10° ENE 08:49:14 12° E 08:50:59 10° ESE visible
02 Aug 5.6 09:11:03 10° NE 09:14:53 21° E 09:18:40 10° SE visible
